GW3020 Weather Reports


time (UTC)temp
C
wind
direction
speed
KPH
gust
KPH
rain 1hr
cm
rain 24hr
cm
rain mn
cm
humidity
%
barometer
mb
20260906105700 18 223 0.0 0.0 0.00 0.00 0.00 96 1013.8
20260906105156 18 223 0.0 0.0 0.00 0.00 0.00 96 1014.1
20260906104655 18 224 0.0 0.0 0.00 0.00 0.00 96 1014.4
20260906104149 18 226 0.0 0.0 0.00 0.00 0.00 96 1014.3
20260906103647 18 238 0.0 0.0 0.00 0.00 0.00 96 1014.5
20260906103143 18 259 1.6 1.6 0.00 0.00 0.00 96 1014.3
20260906102638 18 246 0.0 0.0 0.00 0.00 0.00 96 1014.2
20260906102137 18 246 0.0 0.0 0.00 0.00 0.00 96 1014.3
20260906101637 18 252 0.0 1.6 0.00 0.00 0.00 96 1013.9
20260906101136 18 241 0.0 0.0 0.00 0.00 0.00 96 1014.1
20260906100632 18 248 0.0 0.0 0.00 0.00 0.00 96 1014.2
20260906100127 18 244 0.0 1.6 0.00 0.00 0.00 96 1014.4
20260906095622 18 242 0.0 0.0 0.00 0.00 0.00 96 1014.1
20260906095118 18 244 1.6 1.6 0.00 0.00 0.00 96 1014.4
20260906094616 18 212 0.0 0.0 0.00 0.00 0.00 96 1014.3
20260906094112 19 201 0.0 1.6 0.00 0.00 0.00 96 1013.8
20260906093608 19 353 0.0 0.0 0.00 0.00 0.00 96 1013.6
20260906093102 19 335 1.6 3.2 0.00 0.00 0.00 96 1013.8
20260906092557 19 258 1.6 3.2 0.00 0.00 0.00 96 1013.7
20260906092052 19 253 0.0 0.0 0.00 0.00 0.00 96 1013.7
20260906091548 19 253 0.0 0.0 0.00 0.00 0.00 96 1013.5
20260906091045 19 249 0.0 0.0 0.00 0.00 0.00 96 1013.7
20260906090545 18 249 0.0 0.0 0.00 0.00 0.00 96 1013.9
20260906090040 18 249 0.0 0.0 0.00 0.00 0.00 96 1013.6
20260906085539 18 249 0.0 0.0 0.00 0.00 0.00 96 1013.6
20260906085039 18 249 0.0 0.0 0.00 0.00 0.00 96 1013.7
20260906084539 18 249 0.0 0.0 0.00 0.00 0.00 96 1013.8
20260906084037 18 249 0.0 0.0 0.00 0.00 0.00 96 1013.6
20260906083533 18 249 0.0 0.0 0.00 0.00 0.00 96 1013.7
20260906083033 18 248 0.0 0.0 0.00 0.00 0.00 96 1013.8
20260906082528 18 248 0.0 0.0 0.00 0.00 0.00 96 1013.6
20260906082024 18 246 0.0 0.0 0.00 0.00 0.00 96 1013.6
20260906081519 18 245 0.0 0.0 0.00 0.00 0.00 96 1013.6
20260906081015 18 245 0.0 0.0 0.00 0.00 0.00 96 1013.5
20260906080512 18 245 0.0 0.0 0.00 0.00 0.00 96 1013.4
20260906080007 18 245 0.0 0.0 0.00 0.00 0.00 96 1013.6
20260906075501 18 245 0.0 0.0 0.00 0.00 0.00 96 1013.9
20260906074957 18 245 0.0 0.0 0.00 0.00 0.00 96 1013.8
20260906074456 18 245 0.0 0.0 0.00 0.00 0.00 96 1013.7
20260906073954 18 245 0.0 0.0 0.00 0.00 0.00 96 1014.1
20260906073450 18 254 0.0 1.6 0.00 0.00 0.00 96 1013.9
20260906072946 18 253 1.6 1.6 0.00 0.00 0.00 96 1014.2
20260906072441 18 250 0.0 1.6 0.00 0.00 0.00 96 1014.1
20260906071937 18 243 0.0 0.0 0.00 0.00 0.00 96 1013.9
20260906071433 18 240 0.0 0.0 0.00 0.00 0.00 95 1014.1
20260906070929 18 240 1.6 1.6 0.00 0.00 0.00 95 1014.1
20260906070425 18 240 0.0 0.0 0.00 0.00 0.00 95 1013.9
20260906065921 19 240 0.0 0.0 0.00 0.00 0.00 95 1013.8
20260906065415 19 240 0.0 1.6 0.00 0.00 0.00 95 1013.9
20260906064911 18 239 0.0 0.0 0.00 0.00 0.00 95 1013.8
20260906064407 18 239 0.0 0.0 0.00 0.00 0.00 95 1013.9
20260906063906 18 239 0.0 0.0 0.00 0.00 0.00 95 1013.7
20260906063401 18 239 0.0 0.0 0.00 0.00 0.00 95 1013.8
20260906062856 18 239 0.0 0.0 0.00 0.00 0.00 95 1013.7
20260906062355 19 239 0.0 0.0 0.00 0.00 0.00 95 1014.1
20260906061851 19 239 0.0 0.0 0.00 0.00 0.00 95 1014.3
20260906061348 19 239 0.0 0.0 0.00 0.00 0.00 95 1014.3
20260906060842 19 239 0.0 0.0 0.00 0.00 0.00 95 1014.5
20260906060340 19 238 0.0 1.6 0.00 0.00 0.00 95 1014.5
20260906055835 19 239 0.0 1.6 0.00 0.00 0.00 95 1014.6
20260906055331 19 239 0.0 0.0 0.00 0.00 0.00 95 1014.5
20260906054826 19 239 0.0 1.6 0.00 0.00 0.00 95 1014.5
20260906054321 20 240 0.0 0.0 0.00 0.00 0.00 95 1014.7
20260906053817 20 240 0.0 0.0 0.00 0.00 0.00 95 1014.7
20260906053313 20 240 0.0 1.6 0.00 0.00 0.00 95 1014.7
20260906052808 20 240 0.0 1.6 0.00 0.00 0.00 95 1014.6
20260906052305 20 239 0.0 0.0 0.00 0.00 0.00 95 1014.6
20260906051801 20 241 0.0 0.0 0.00 0.00 0.00 95 1014.7
20260906051300 20 245 0.0 0.0 0.00 0.00 0.00 95 1014.9
20260906050755 20 238 0.0 1.6 0.00 0.00 0.00 95 1014.7
20260906050251 20 226 0.0 1.6 0.00 0.00 0.00 95 1014.7
20260906045749 20 214 0.0 1.6 0.00 0.00 0.00 95 1014.5
20260906045244 20 213 1.6 1.6 0.00 0.00 0.00 95 1014.6
20260906044740 20 257 0.0 0.0 0.00 0.00 0.00 95 1014.5
20260906044235 20 258 0.0 0.0 0.00 0.00 0.00 95 1014.4
20260906043731 20 258 0.0 1.6 0.00 0.00 0.00 95 1014.4
20260906043227 20 258 0.0 1.6 0.00 0.00 0.00 95 1014.5
20260906042727 20 258 0.0 1.6 0.00 0.00 0.00 95 1014.5
20260906042225 20 236 0.0 0.0 0.00 0.00 0.00 95 1014.4
20260906041716 20 236 0.0 0.0 0.00 0.00 0.00 94 1014.7
20260906041211 20 236 0.0 0.0 0.00 0.00 0.00 94 1014.5
20260906040707 20 230 0.0 0.0 0.00 0.00 0.00 94 1014.4
20260906040202 20 230 0.0 0.0 0.00 0.00 0.00 94 1014.3
20260906035658 20 230 0.0 0.0 0.00 0.81 0.81 94 1014.2
20260906035153 20 230 0.0 0.0 0.00 0.81 0.81 94 1014.3
20260906034652 20 230 0.0 0.0 0.00 0.81 0.81 94 1014.4
20260906034147 20 217 0.0 1.6 0.00 0.81 0.81 94 1014.5
20260906033644 20 205 0.0 1.6 0.00 0.81 0.81 94 1014.5
20260906033138 20 246 0.0 1.6 0.00 0.81 0.81 94 1014.3
20260906032635 20 246 0.0 0.0 0.00 0.81 0.81 93 1014.7
20260906032134 20 246 0.0 0.0 0.00 0.81 0.81 93 1015.0
20260906031630 20 246 0.0 0.0 0.00 0.81 0.81 93 1014.9
20260906031125 20 246 0.0 1.6 0.00 0.81 0.81 93 1014.8
20260906030624 20 246 0.0 0.0 0.00 0.81 0.81 93 1014.9
20260906030120 20 246 0.0 1.6 0.00 0.81 0.81 93 1015.0
20260906025619 20 246 0.0 1.6 0.00 0.81 0.81 93 1014.9
20260906025118 20 251 0.0 0.0 0.00 0.81 0.81 93 1015.2
20260906024613 21 251 1.6 1.6 0.00 0.81 0.81 93 1015.1
20260906024107 21 251 0.0 1.6 0.00 0.81 0.81 93 1015.1
20260906023603 21 253 1.6 1.6 0.00 0.81 0.81 92 1015.3
20260906023058 21 253 0.0 1.6 0.00 0.81 0.81 92 1015.1
20260906022553 21 253 0.0 0.0 0.00 0.81 0.81 92 1015.1
20260906022049 21 254 0.0 1.6 0.00 0.81 0.81 92 1015.0
20260906021544 21 254 0.0 0.0 0.00 0.81 0.81 91 1015.2
20260906021043 21 255 1.6 1.6 0.00 0.81 0.81 91 1014.9
20260906020542 21 255 0.0 1.6 0.00 0.81 0.81 91 1015.1
20260906020036 21 251 0.0 0.0 0.00 0.81 0.81 91 1015.1
20260906015535 21 247 1.6 1.6 0.00 0.81 0.81 91 1015.0
20260906015030 21 244 1.6 1.6 0.00 0.81 0.81 91 1015.1
20260906014525 22 235 0.0 0.0 0.00 0.81 0.81 90 1014.8
20260906014021 22 236 1.6 1.6 0.00 0.81 0.81 89 1015.0
20260906013516 22 231 0.0 1.6 0.00 0.81 0.81 88 1014.7
20260906013011 22 258 0.0 0.0 0.00 0.81 0.81 87 1014.8
20260906012507 22 260 0.0 1.6 0.00 0.81 0.81 86 1015.0
20260906012005 22 257 1.6 1.6 0.00 0.81 0.81 85 1014.9
20260906011501 22 264 0.0 1.6 0.00 0.81 0.81 86 1014.5
20260906010955 22 256 1.6 3.2 0.00 0.81 0.81 86 1014.6
20260906010446 22 252 1.6 1.6 0.00 0.81 0.81 85 1014.6
20260906005942 22 304 1.6 1.6 0.00 0.81 0.81 87 1014.5
20260906005435 23 272 1.6 3.2 0.00 0.81 0.81 86 1014.4
20260906004928 23 250 1.6 1.6 0.00 0.81 0.81 87 1014.4
20260906004423 23 266 1.6 4.8 0.00 0.81 0.81 87 1014.3
20260906003919 23 259 1.6 3.2 0.00 0.81 0.81 87 1014.4
20260906003414 23 253 0.0 1.6 0.00 0.81 0.81 86 1014.5
20260906002908 23 312 3.2 4.8 0.00 0.81 0.81 85 1014.4
20260906002403 23 344 1.6 1.6 0.00 0.81 0.81 84 1014.4
20260906001858 23 289 3.2 3.2 0.00 0.81 0.81 83 1013.9
20260906001353 23 256 3.2 4.8 0.00 0.81 0.81 83 1013.9
20260906000848 23 261 1.6 3.2 0.00 0.81 0.81 82 1013.7
20260906000348 23 253 3.2 3.2 0.00 0.81 0.81 82 1013.9
20260905235843 24 255 1.6 1.6 0.00 0.81 0.81 82 1014.1
20260905235337 24 246 1.6 3.2 0.00 0.81 0.81 81 1014.2
20260905234833 24 236 0.0 0.0 0.00 0.81 0.81 81 1013.5
20260905234328 24 230 1.6 1.6 0.00 0.81 0.81 80 1013.5
20260905233823 25 273 1.6 1.6 0.00 0.81 0.81 80 1013.7
20260905233318 25 238 0.0 0.0 0.00 0.81 0.81 79 1013.9
20260905232817 25 246 1.6 3.2 0.00 0.81 0.81 78 1013.8
20260905232314 25 232 1.6 1.6 0.00 0.81 0.81 78 1013.6
20260905231809 25 243 1.6 6.4 0.00 0.81 0.81 77 1013.7
20260905231304 26 231 1.6 4.8 0.00 0.81 0.81 76 1013.6
20260905230800 26 226 1.6 3.2 0.00 0.81 0.81 74 1013.7
20260905230258 26 258 0.0 4.8 0.00 0.81 0.81 73 1013.6
20260905225758 27 273 3.2 6.4 0.00 0.81 0.81 72 1013.6
20260905225252 27 234 1.6 6.4 0.00 0.81 0.81 72 1013.6
20260905224752 27 223 6.4 11.3 0.00 0.81 0.81 72 1014.1
20260905224248 27 266 3.2 4.8 0.00 0.81 0.81 71 1013.9
20260905223743 27 259 4.8 4.8 0.00 0.81 0.81 70 1013.9
20260905223240 27 227 3.2 9.7 0.00 0.81 0.81 70 1013.9
20260905222736 27 228 4.8 9.7 0.00 0.81 0.81 69 1014.1
20260905222234 27 214 1.6 1.6 0.00 0.81 0.81 69 1013.9
20260905221731 27 223 1.6 4.8 0.00 0.81 0.81 69 1013.8
20260905221227 27 215 1.6 11.3 0.00 0.81 0.81 69 1013.7
20260905220723 27 218 1.6 3.2 0.00 0.81 0.81 67 1013.8
20260905220219 27 173 4.8 4.8 0.00 0.81 0.81 67 1013.8
20260905215718 27 226 1.6 6.4 0.00 0.81 0.81 68 1013.6
20260905215214 27 223 1.6 3.2 0.00 0.81 0.81 69 1013.6
20260905214709 27 204 1.6 6.4 0.00 0.81 0.81 68 1013.8
20260905214205 27 208 1.6 3.2 0.00 0.81 0.81 68 1013.6
20260905213700 27 249 3.2 4.8 0.00 0.81 0.81 69 1013.7
20260905213156 27 251 3.2 12.9 0.00 0.81 0.81 68 1013.7
20260905212650 27 227 1.6 3.2 0.00 0.81 0.81 67 1013.6
20260905212150 27 222 1.6 3.2 0.00 0.81 0.81 67 1013.6
20260905211644 27 222 1.6 4.8 0.00 0.81 0.81 67 1013.6
20260905211140 27 230 1.6 4.8 0.00 0.81 0.81 67 1013.6
20260905210636 26 256 3.2 6.4 0.00 0.81 0.81 70 1013.4
20260905210131 26 244 4.8 6.4 0.00 0.81 0.81 70 1013.4
20260905205630 26 204 1.6 3.2 0.00 0.81 0.81 70 1013.3
20260905205130 26 224 1.6 4.8 0.00 0.81 0.81 70 1013.4
20260905204624 26 205 1.6 3.2 0.00 0.81 0.81 71 1013.4
20260905204119 26 248 8.0 11.3 0.00 0.81 0.81 71 1013.4
20260905203614 26 208 1.6 1.6 0.00 0.81 0.81 72 1013.5
20260905203109 26 203 1.6 3.2 0.00 0.81 0.81 72 1013.5
20260905202604 26 215 3.2 9.7 0.00 0.81 0.81 72 1013.3
20260905202059 26 223 0.0 4.8 0.00 0.81 0.81 71 1013.5
20260905201554 25 241 1.6 9.7 0.00 0.81 0.81 74 1013.4
20260905201054 25 238 3.2 4.8 0.00 0.81 0.81 74 1013.3
20260905200549 25 226 1.6 9.7 0.00 0.81 0.81 75 1013.5
20260905200044 25 246 6.4 11.3 0.00 0.81 0.81 76 1013.4
20260905195543 25 318 3.2 4.8 0.00 0.81 0.81 75 1013.4
20260905195039 25 268 3.2 6.4 0.00 0.81 0.81 74 1013.5
20260905194539 25 203 1.6 3.2 0.00 0.81 0.81 76 1013.6
20260905194038 25 250 3.2 4.8 0.00 0.81 0.81 76 1013.3
20260905193533 24 240 4.8 11.3 0.00 0.81 0.81 77 1013.5
20260905193028 24 221 1.6 6.4 0.00 0.81 0.81 78 1013.5
20260905192523 24 257 4.8 9.7 0.00 0.81 0.81 78 1013.6
20260905192020 24 250 3.2 4.8 0.00 0.81 0.81 80 1013.5
20260905191518 23 265 3.2 9.7 0.00 0.81 0.81 79 1013.6
20260905191018 23 255 1.6 3.2 0.00 0.81 0.81 80 1013.7
20260905190516 23 267 4.8 9.7 0.00 0.81 0.81 78 1013.8
20260905190016 23 159 3.2 4.8 0.00 0.81 0.81 80 1013.7
20260905185510 23 310 8.0 14.5 0.00 0.81 0.81 81 1013.7
20260905185009 23 202 1.6 12.9 0.00 0.81 0.81 82 1014.2
20260905184504 22 214 1.6 6.4 0.00 0.81 0.81 81 1014.3
20260905184002 22 235 4.8 6.4 0.00 0.81 0.81 83 1014.2
20260905183457 22 244 3.2 6.4 0.00 0.81 0.81 83 1014.3
20260905182952 22 245 3.2 12.9 0.00 0.81 0.81 83 1014.2
20260905182451 22 250 4.8 11.3 0.00 0.81 0.81 85 1014.6
20260905181946 22 264 8.0 11.3 0.00 0.81 0.81 87 1014.4
20260905181441 22 271 9.7 14.5 0.00 0.81 0.81 88 1014.8
20260905180940 21 224 1.6 9.7 0.00 0.81 0.81 89 1014.5
20260905180435 21 234 3.2 3.2 0.00 0.81 0.81 90 1014.5
20260905175930 21 243 0.0 6.4 0.00 0.81 0.81 91 1014.8
20260905175430 21 242 3.2 6.4 0.00 0.81 0.81 92 1015.1
20260905174925 20 206 1.6 3.2 0.00 0.81 0.81 92 1015.0
20260905174421 20 211 0.0 3.2 0.00 0.81 0.81 93 1015.1
20260905173916 20 236 3.2 4.8 0.00 0.81 0.81 93 1015.6
20260905173413 20 228 1.6 3.2 0.00 0.81 0.81 93 1015.3
20260905172912 20 225 0.0 1.6 0.00 0.81 0.81 93 1015.4
20260905172410 20 26 1.6 3.2 0.00 0.81 0.81 93 1015.2
20260905171906 20 183 3.2 3.2 0.00 0.81 0.81 93 1015.7
20260905171403 20 338 3.2 3.2 0.30 0.81 0.81 93 1016.4
20260905170859 20 37 1.6 3.2 0.13 0.79 0.79 92 1015.7
20260905170355 20 214 1.6 1.6 0.18 0.76 0.76 92 1016.6
20260905165854 21 216 0.0 1.6 0.30 0.76 0.76 92 1017.1
20260905165349 21 223 1.6 3.2 0.30 0.74 0.74 92 1017.1
20260905164844 21 219 0.0 4.8 0.18 0.71 0.71 92 1017.3
20260905164339 21 206 1.6 1.6 0.18 0.69 0.69 92 1017.4
20260905163834 22 245 1.6 3.2 0.18 0.69 0.69 92 1017.8
20260905163325 22 262 1.6 3.2 0.00 0.66 0.66 92 1017.7
20260905162820 22 236 1.6 3.2 0.00 0.66 0.66 92 1018.1
20260905162314 22 243 0.0 3.2 0.00 0.66 0.66 92 1017.8
20260905161809 22 136 0.0 0.0 0.13 0.66 0.66 91 1017.5
20260905161308 22 160 3.2 3.2 0.13 0.66 0.66 91 1017.1
20260905160807 22 137 0.0 1.6 1.98 0.64 0.64 90 1016.8
20260905160301 23 159 0.0 4.8 3.84 0.64 0.64 88 1016.7
20260905155756 26 321 6.4 11.3 1.55 0.25 0.25 81 1016.9
20260905155255 27 204 4.8 12.9 0.00 0.00 0.00 73 1016.4
20260905154749 27 235 1.6 3.2 0.00 0.00 0.00 73 1016.0
20260905154245 28 234 0.0 3.2 0.00 0.00 0.00 72 1015.8
20260905153740 28 242 3.2 4.8 0.00 0.00 0.00 71 1016.1
20260905153235 28 234 6.4 11.3 0.00 0.00 0.00 70 1015.9
20260905152730 28 233 3.2 4.8 0.00 0.00 0.00 70 1016.0
20260905152224 28 316 3.2 4.8 0.00 0.00 0.00 70 1016.1
20260905151719 28 223 0.0 3.2 0.00 0.00 0.00 71 1015.9
20260905151215 28 230 3.2 6.4 0.00 0.00 0.00 72 1016.0
20260905150710 28 271 1.6 3.2 0.00 0.00 0.00 72 1016.1
20260905150209 27 202 0.0 3.2 0.00 0.00 0.00 74 1016.1
20260905145706 27 216 3.2 4.8 0.00 0.00 0.00 75 1016.2
20260905145202 27 211 1.6 3.2 0.00 0.00 0.00 75 1015.9
20260905144700 27 285 6.4 9.7 0.00 0.00 0.00 75 1015.8
20260905144154 26 205 3.2 4.8 0.00 0.00 0.00 76 1015.7
20260905143654 26 240 1.6 3.2 0.00 0.00 0.00 76 1015.8
20260905143149 26 272 3.2 4.8 0.00 0.00 0.00 76 1015.8
20260905142648 26 223 3.2 4.8 0.00 0.00 0.00 77 1016.1
20260905142148 26 254 3.2 12.9 0.00 0.00 0.00 78 1016.0
20260905141643 26 240 3.2 6.4 0.00 0.00 0.00 78 1016.1
20260905141139 26 219 3.2 6.4 0.00 0.00 0.00 79 1016.0
20260905140633 26 210 3.2 4.8 0.00 0.00 0.00 79 1016.1
20260905140132 25 200 1.6 3.2 0.00 0.00 0.00 79 1016.2
20260905135628 25 220 0.0 1.6 0.00 0.00 0.00 80 1016.0
20260905135123 25 229 1.6 4.8 0.00 0.00 0.00 80 1016.0
20260905134613 25 196 3.2 6.4 0.00 0.00 0.00 80 1016.0
20260905134111 25 248 4.8 9.7 0.00 0.00 0.00 82 1016.2
20260905133607 24 244 1.6 6.4 0.00 0.00 0.00 83 1016.0
20260905133106 24 239 3.2 4.8 0.00 0.00 0.00 84 1016.0
20260905132606 23 243 1.6 3.2 0.00 0.00 0.00 85 1016.0
20260905132100 23 237 1.6 4.8 0.00 0.00 0.00 85 1016.0
20260905131556 23 225 4.8 4.8 0.00 0.00 0.00 86 1016.1
20260905131051 23 217 0.0 1.6 0.00 0.00 0.00 86 1016.1
20260905130550 22 241 0.0 1.6 0.00 0.00 0.00 87 1016.2
20260905130046 22 233 0.0 3.2 0.00 0.00 0.00 87 1016.3
20260905125545 22 262 3.2 4.8 0.00 0.00 0.00 87 1016.3
20260905125041 21 246 3.2 6.4 0.00 0.00 0.00 88 1016.3
20260905124537 21 269 3.2 4.8 0.00 0.00 0.00 88 1016.2
20260905124033 21 231 6.4 6.4 0.00 0.00 0.00 89 1016.2
20260905123528 21 246 3.2 6.4 0.00 0.00 0.00 88 1016.2
20260905123026 21 276 6.4 6.4 0.00 0.00 0.00 89 1016.4
20260905122525 21 251 3.2 4.8 0.00 0.00 0.00 89 1016.3
20260905122020 21 234 1.6 3.2 0.00 0.00 0.00 89 1016.3
20260905121515 21 241 1.6 3.2 0.00 0.00 0.00 89 1016.0
20260905121015 20 256 1.6 4.8 0.00 0.00 0.00 90 1015.8
20260905120509 20 248 1.6 1.6 0.00 0.00 0.00 90 1016.0
20260905120005 20 242 1.6 3.2 0.00 0.00 0.00 90 1016.1
20260905115503 20 239 0.0 1.6 0.00 0.00 0.00 91 1016.1
20260905114958 20 250 1.6 3.2 0.00 0.00 0.00 91 1016.2
20260905114457 20 260 1.6 1.6 0.00 0.00 0.00 91 1015.9
20260905113955 20 252 0.0 1.6 0.00 0.00 0.00 92 1016.0
20260905113452 20 266 1.6 3.2 0.00 0.00 0.00 92 1015.9
20260905112947 20 248 1.6 3.2 0.00 0.00 0.00 92 1015.8
20260905112442 20 244 0.0 1.6 0.00 0.00 0.00 92 1016.0
20260905111937 19 238 1.6 1.6 0.00 0.00 0.00 92 1015.8
20260905111431 19 243 1.6 3.2 0.00 0.00 0.00 92 1015.8
20260905110926 19 249 1.6 1.6 0.00 0.00 0.00 93 1016.1
20260905110420 19 248 0.0 1.6 0.00 0.00 0.00 93 1015.9